Weather History for KPGD - August, 2013

Change the Weather History Date:

Monday, August 5, 2013

  Actual Average (KFMY) Record (KFMY)
Temperature  
Mean Temperature 84 °F 84 °F  
Max Temperature 93 °F 92 °F 98 °F (1942)
Min Temperature 78 °F 75 °F 70 °F (1925)
Degree Days  
Heating Degree Days 0 0  
Month to date heating degree days 0  
Since 1 June heating degree days 0  
Since 1 July heating degree days 0  
Cooling Degree Days 20 18  
Month to date cooling degree days 90  
Year to date cooling degree days 2245  
Since 1 June cooling degree days 1179  
Growing Degree Days 34 (Base 50)    
Moisture  
Dew Point 76 °F    
Average Humidity 78    
Maximum Humidity 94    
Minimum Humidity 59    
Precipitation  
Precipitation 0.00 in 0.31 in 2.19 in (2000)
Month to date precipitation 1.54  
Year to date precipitation 32.47  
Sea Level Pressure  
Sea Level Pressure 30.03 in    
Wind  
Wind Speed 4 mph (West)    
Max Wind Speed 15 mph    
Max Gust Speed 18 mph    
Visibility 10 miles    
Events Thunderstorm    
T = Trace of Precipitation, MM = Missing Value Source: NWS Daily Summary

Daily Weather History Graph

Daily Weather History Graph

Search for Another Location

Airport or City:

Trip Planner

Search our weather history database for the weather conditions in past years. The results will help you decide how hot, cold, wet, or windy it might be!

Date:

Astronomy

Aug. 05, 2013 Rise Set
Actual Time 6:54 AM EDT 8:12 PM EDT
Civil Twilight 6:29 AM EDT 8:37 PM EDT
Nautical Twilight 6:00 AM EDT 9:07 PM EDT
Astronomical Twilight 5:29 AM EDT 9:37 PM EDT
Moon 5:47 AM EDT (8/5) 7:15 PM EDT (8/5)
Length of Visible Light 14h 07m
Length of Day
13h 18m
Waning Crescent, 1% of the Moon is Illuminated
Aug 5
Waning Crescent
Aug 6
New
Aug 14
First Quarter
Aug 20
Full
Aug 28
Last Quarter

Hourly Weather History & Observations

Time (EDT) Temp. Heat Index Dew Point Humidity Pressure Visibility Wind Dir Wind Speed Gust Speed Precip Events Conditions
12:53 AM 82.0 °F 91.0 °F 78.1 °F 88% 30.07 in 10.0 mi WSW 3.5 mph - N/A   Scattered Clouds
1:53 AM 82.0 °F 90.2 °F 77.0 °F 85% 30.05 in 10.0 mi West 3.5 mph - N/A   Clear
2:53 AM 82.0 °F 90.2 °F 77.0 °F 85% 30.03 in 10.0 mi West 3.5 mph - N/A   Clear
3:53 AM 79.0 °F - 77.0 °F 94% 30.02 in 10.0 mi Calm Calm - N/A   Clear
4:53 AM 80.1 °F 85.8 °F 77.0 °F 90% 30.01 in 10.0 mi Calm Calm - N/A   Clear
5:27 AM 78.8 °F - 77.0 °F 94% 30.01 in 10.0 mi Calm Calm - N/A   Mostly Cloudy
5:51 AM 78.8 °F - 77.0 °F 94% 30.01 in 10.0 mi Calm Calm - N/A   Scattered Clouds
5:53 AM 79.0 °F - 77.0 °F 94% 30.02 in 10.0 mi Calm Calm - N/A   Scattered Clouds
6:53 AM 78.1 °F - 75.9 °F 93% 30.04 in 9.0 mi Calm Calm - N/A   Clear
7:23 AM 80.6 °F 88.1 °F 78.8 °F 94% 30.04 in 10.0 mi Calm Calm - N/A   Mostly Cloudy
7:45 AM 80.6 °F 88.1 °F 78.8 °F 94% 30.05 in 10.0 mi Calm Calm - N/A   Scattered Clouds
7:53 AM 81.0 °F 88.6 °F 78.1 °F 91% 30.05 in 10.0 mi Calm Calm - N/A   Partly Cloudy
8:53 AM 86.0 °F 96.9 °F 77.0 °F 74% 30.06 in 10.0 mi Variable 3.5 mph - N/A   Clear
9:53 AM 88.0 °F 100.2 °F 77.0 °F 70% 30.07 in 10.0 mi Calm Calm - N/A   Clear
10:53 AM 88.0 °F 98.5 °F 75.9 °F 67% 30.06 in 10.0 mi West 4.6 mph - N/A   Mostly Cloudy
11:02 AM 89.6 °F 99.8 °F 75.2 °F 62% 30.06 in 10.0 mi West 5.8 mph - N/A   Mostly Cloudy
11:09 AM 87.8 °F 97.6 °F 75.2 °F 66% 30.06 in 10.0 mi West 4.6 mph - N/A   Mostly Cloudy
11:18 AM 89.6 °F 99.8 °F 75.2 °F 62% 30.06 in 10.0 mi West 6.9 mph - N/A   Mostly Cloudy
11:53 AM 89.1 °F 99.1 °F 75.0 °F 63% 30.06 in 10.0 mi West 9.2 mph - N/A Thunderstorm Overcast
12:19 PM 84.2 °F 92.3 °F 75.2 °F 74% 30.06 in 10.0 mi North 6.9 mph - N/A Thunderstorm Scattered Clouds
12:46 PM 84.2 °F 89.6 °F 71.6 °F 66% 30.06 in 10.0 mi West 10.4 mph - N/A   Scattered Clouds
12:53 PM 87.1 °F 95.4 °F 73.9 °F 65% 30.06 in 10.0 mi West 9.2 mph - N/A   Partly Cloudy
1:53 PM 90.0 °F 100.2 °F 75.0 °F 61% 30.03 in 10.0 mi West 5.8 mph - N/A   Clear
2:53 PM 91.0 °F 102.9 °F 75.9 °F 61% 30.00 in 10.0 mi WSW 11.5 mph - N/A   Partly Cloudy
3:53 PM 89.1 °F 99.1 °F 75.0 °F 63% 29.98 in 10.0 mi West 15.0 mph - N/A   Scattered Clouds
4:53 PM 91.0 °F 101.6 °F 75.0 °F 59% 29.99 in 10.0 mi West 9.2 mph 18.4 mph N/A   Clear
5:53 PM 89.1 °F 98.0 °F 73.9 °F 61% 29.97 in 10.0 mi West 15.0 mph - N/A   Clear
6:53 PM 86.0 °F 96.0 °F 75.9 °F 72% 30.00 in 10.0 mi NW 9.2 mph - N/A   Partly Cloudy
7:53 PM 86.0 °F 95.1 °F 75.0 °F 70% 30.02 in 10.0 mi WNW 4.6 mph - N/A   Clear
8:53 PM 78.1 °F - 73.0 °F 84% 30.02 in 10.0 mi East 6.9 mph - N/A   Clear
9:53 PM 79.0 °F - 73.9 °F 84% 30.02 in 10.0 mi Calm Calm - N/A   Clear
10:53 PM 79.0 °F - 75.0 °F 88% 30.02 in 10.0 mi Calm Calm - N/A   Partly Cloudy
11:53 PM 78.1 °F - 75.0 °F 90% 30.01 in 10.0 mi Calm Calm - N/A   Clear